Probability
0 0 100 100 100 100 100 100 100 97 87 84 94 100 100 100 100 100 100 100 100 100 100 100 100 100 100 87 94 100 100 100 100 100 100 100 100 90 77 81 97 29 84
0 0 100 100 100 100 100 100 100 100 94 97 97 100 100 97 100 100 100 100 100 100 100 100 100 100 97 48 55 84 97 100 90 87 90 94 84 71 74 84 100 35 58
0 13 100 100 100 100 100 100 100 100 97 97 100 100 100 94 87 81 84 90 84 81 81 94 94 94 87 35 6 13 32 65 68 71 94 42 42 61 42 71 81 61 29
0 0 81 100 100 100 100 100 100 100 100 100 100 100 100 97 74 48 42 45 39 29 29 48 68 81 65 42 19 10 6 10 23 61 90 87 3 55 45 35 45 39 3
0 0 100 100 100 100 100 100 100 100 100 100 100 100 100 100 97 81 58 39 26 19 6 16 32 55 71 77 65 58 35 19 29 32 6 29 26 68 81 35 32 35 19
3 19 100 100 100 100 100 100 100 100 100 100 100 100 100 100 97 90 81 55 35 26 13 16 23 29 45 81 97 90 87 87 81 26 6 16 16 90 97 77 52 42 45
23 61 87 100 100 100 100 100 100 100 100 100 100 100 100 100 100 94 87 74 68 48 35 61 71 42 29 32 65 84 87 90 94 58 58 74 68 100 100 100 100 100 97
71 61 52 100 100 100 100 100 100 100 100 100 100 100 100 100 100 100 100 94 81 55 55 94 100 90 61 61 84 94 90 90 23 6 19 90 87 97 100 100 100 100 100
71 68 23 87 100 100 100 100 100 100 100 100 100 100 100 100 100 100 100 100 100 100 97 90 94 97 94 97 97 100 100 100 100 0 0 65 94 100 100 100 100 100 100
71 81 29 10 94 100 100 100 100 100 100 100 100 100 100 100 100 100 100 100 100 100 100 100 97 90 100 100 100 100 100 100 90 0 0 29 100 100 100 100 100 100 100
84 90 39 6 87 90 87 100 100 100 100 100 100 100 100 100 100 100 100 100 100 100 100 100 100 100 100 100 100 100 100 100 32 3 3 58 100 100 100 100 100 100 100
100 94 61 29 97 84 10 81 90 90 100 100 100 100 100 100 100 100 100 100 100 100 100 100 100 100 100 100 100 100 100 94 77 39 61 100 100 100 100 100 100 100 100
100 100 77 77 97 74 90 94 84 81 100 100 100 100 100 100 100 100 100 100 100 100 100 100 100 100 100 100 74 97 94 84 97 84 97 100 100 100 100 100 100 100 100
100 100 100 97 100 100 100 97 100 97 100 100 100 100 100 100 100 100 100 100 100 100 100 100 100 100 100 100 100 100 97 97 94 100 97 100 100 100 100 100 100 100 100
100 100 100 100 100 100 100 100 100 100 100 100 100 100 100 100 100 100 100 100 100 100 100 100 100 100 100 100 100 100 100 100 100 100 100 100 100 100 100 100 100 100 100
100 100 100 100 100 100 100 100 100 100 100 100 100 100 100 100 100 100 100 100 100 100 100 100 100 100 100 100 100 100 100 100 100 100 100 100 100 100 100 100 100 100 100
100 100 100 100 100 100 100 100 100 100 100 100 100 100 100 100 100 100 100 100 100 100 100 100 100 100 100 100 100 100 100 100 100 100 100 100 100 100 100 100 100 100 100
100 100 100 100 100 100 100 100 100 100 100 100 100 100 100 100 100 100 100 100 100 100 100 97 97 97 94 97 94 94 97 100 100 100 100 100 100 100 100 100 100 100 100
100 100 100 100 100 100 100 100 100 100 100 100 100 100 100 100 100 100 100 100 100 100 97 90 90 87 84 84 77 77 74 84 97 100 100 100 100 100 100 100 100 100 100
100 100 100 100 100 100 100 100 100 100 100 100 100 100 100 100 100 100 100 100 100 100 100 90 84 87 87 81 52 29 42 68 90 100 94 94 97 97 94 90 94 100 100
100 100 100 100 100 100 100 100 100 100 100 100 100 100 100 100 100 100 100 100 100 100 100 84 77 77 81 84 65 32 35 39 55 74 77 77 81 84 87 90 90 84 94
87 87 90 94 100 100 100 100 100 100 100 100 100 100 100 100 100 100 100 97 90 94 97 90 84 77 71 65 35 19 10 16 29 26 65 84 77 81 81 52 71 90 97
35 35 35 68 84 87 100 100 100 100 100 94 97 97 100 100 100 100 94 90 87 87 77 87 77 52 42 32 19 10 0 0 19 48 81 87 87 90 77 58 68 87 100
6 10 13 23 55 87 90 90 97 87 81 84 90 97 100 100 100 100 100 90 94 71 71 58 32 35 16 16 10 3 0 3 3 16 32 74 77 77 71 52 42 58 87
0 0 3 29 74 84 97 97 97 81 74 68 87 97 100 100 100 100 90 84 81 65 48 35 23 23 10 3 3 0 3 6 6 3 3 26 39 42 58 68 65 55 61
0 0 6 39 81 94 97 94 97 94 94 97 90 84 94 97 100 94 84 77 61 35 32 23 3 3 3 0 0 0 0 0 3 3 3 3 6 29 55 81 77 45 26
Height
5924 5924 5925 5926 5926 5927 5927 5927 5926 5926 5925 5924 5923 5922 5921 5919 5918 5917 5916 5914 5913 5913 5912 5911 5910 5909 5908 5906 5905 5904 5903 5902 5901 5901 5900 5899 5899 5898 5898 5898 5898 5898 5898
5926 5926 5927 5928 5928 5928 5928 5928 5928 5927 5926 5925 5924 5922 5921 5920 5919 5918 5917 5915 5914 5913 5912 5911 5910 5909 5908 5907 5906 5905 5904 5903 5902 5902 5901 5900 5900 5899 5899 5898 5898 5899 5899
5928 5928 5929 5929 5930 5930 5929 5929 5928 5928 5927 5926 5925 5923 5922 5921 5920 5919 5918 5917 5915 5914 5913 5912 5910 5909 5908 5908 5907 5906 5905 5904 5903 5903 5902 5902 5901 5900 5899 5899 5899 5899 5899
5928 5929 5929 5930 5930 5930 5930 5929 5929 5928 5927 5926 5925 5924 5923 5921 5920 5919 5918 5917 5916 5915 5913 5912 5911 5909 5909 5908 5907 5906 5906 5905 5904 5904 5903 5902 5901 5901 5900 5900 5899 5898 5898
5928 5929 5929 5930 5930 5930 5929 5929 5928 5928 5927 5926 5925 5924 5923 5922 5920 5919 5918 5917 5916 5914 5913 5912 5911 5910 5909 5908 5906 5906 5905 5905 5904 5904 5904 5904 5903 5901 5901 5900 5899 5899 5898
5929 5929 5929 5929 5929 5929 5928 5928 5927 5927 5927 5926 5925 5924 5923 5922 5921 5920 5919 5917 5916 5914 5913 5912 5911 5910 5909 5907 5906 5905 5904 5904 5904 5903 5903 5903 5902 5901 5901 5900 5900 5899 5899
5930 5929 5928 5928 5928 5927 5927 5927 5926 5926 5926 5926 5925 5924 5923 5922 5921 5920 5918 5917 5916 5914 5913 5912 5910 5909 5908 5907 5906 5905 5903 5902 5902 5902 5902 5902 5902 5901 5901 5901 5900 5899 5899
5929 5929 5928 5927 5926 5926 5926 5925 5925 5925 5925 5924 5924 5923 5922 5921 5920 5919 5918 5917 5915 5914 5913 5912 5910 5909 5908 5907 5906 5904 5903 5901 5900 5900 5901 5901 5901 5900 5900 5900 5900 5900 5899
5928 5928 5927 5926 5926 5925 5925 5924 5924 5924 5923 5922 5922 5921 5920 5920 5919 5918 5917 5916 5915 5913 5912 5911 5910 5909 5907 5906 5905 5904 5902 5900 5899 5899 5899 5900 5899 5899 5899 5898 5899 5899 5898
5926 5927 5925 5925 5924 5924 5923 5923 5922 5922 5921 5920 5920 5919 5918 5917 5917 5916 5914 5914 5913 5912 5911 5910 5909 5907 5906 5905 5904 5903 5901 5900 5899 5897 5897 5898 5897 5897 5897 5897 5897 5897 5897
5924 5924 5924 5924 5923 5922 5922 5921 5920 5920 5919 5918 5917 5917 5916 5915 5915 5914 5912 5911 5910 5909 5909 5908 5907 5906 5904 5903 5901 5900 5900 5899 5898 5897 5896 5895 5895 5895 5895 5895 5895 5895 5895
5921 5921 5922 5922 5921 5920 5920 5919 5918 5917 5916 5916 5915 5914 5913 5913 5912 5911 5910 5908 5907 5906 5905 5905 5904 5903 5902 5901 5900 5898 5897 5897 5896 5895 5895 5893 5892 5892 5892 5892 5892 5892 5893
5919 5919 5918 5919 5918 5917 5917 5916 5914 5914 5913 5912 5912 5911 5910 5909 5909 5908 5908 5906 5905 5904 5902 5901 5901 5900 5899 5898 5897 5896 5895 5895 5894 5894 5893 5891 5890 5890 5889 5889 5889 5889 5889
5916 5915 5915 5914 5914 5913 5912 5912 5911 5909 5909 5908 5908 5907 5906 5905 5904 5904 5904 5903 5902 5901 5899 5898 5897 5896 5895 5894 5894 5893 5892 5892 5891 5891 5890 5889 5888 5887 5886 5886 5885 5885 5885
5913 5911 5911 5911 5909 5908 5906 5905 5905 5904 5903 5902 5902 5902 5900 5900 5899 5898 5897 5897 5896 5896 5895 5894 5893 5892 5891 5890 5890 5889 5889 5888 5887 5887 5887 5886 5885 5885 5884 5882 5881 5881 5880
5907 5906 5905 5905 5904 5902 5901 5899 5898 5898 5896 5895 5895 5895 5895 5893 5892 5891 5890 5889 5889 5888 5888 5887 5886 5886 5886 5885 5885 5885 5884 5884 5883 5882 5882 5882 5881 5881 5880 5879 5878 5876 5876
5900 5900 5898 5897 5897 5896 5894 5892 5891 5890 5889 5888 5887 5886 5887 5887 5885 5883 5883 5882 5881 5881 5880 5880 5879 5879 5879 5879 5879 5879 5879 5879 5878 5877 5877 5876 5876 5876 5875 5874 5873 5872 5871
5892 5892 5892 5890 5889 5887 5885 5884 5884 5882 5881 5880 5879 5877 5877 5877 5876 5875 5874 5873 5872 5872 5872 5871 5870 5870 5869 5870 5870 5871 5871 5872 5871 5870 5870 5870 5870 5870 5869 5868 5867 5867 5866
5885 5884 5883 5881 5879 5878 5877 5876 5875 5874 5872 5871 5870 5869 5868 5869 5868 5866 5865 5864 5862 5861 5862 5861 5861 5861 5860 5859 5859 5861 5862 5863 5863 5862 5863 5863 5863 5863 5862 5862 5861 5860 5859
5877 5875 5873 5872 5870 5868 5867 5866 5866 5865 5863 5862 5861 5860 5859 5858 5858 5857 5856 5854 5852 5850 5850 5849 5849 5849 5849 5848 5848 5849 5851 5852 5853 5854 5854 5855 5855 5855 5855 5855 5855 5854 5853
5867 5866 5864 5862 5860 5858 5857 5856 5856 5855 5854 5853 5852 5851 5850 5848 5847 5846 5845 5844 5842 5840 5838 5837 5836 5836 5836 5836 5835 5836 5838 5840 5842 5844 5846 5847 5847 5846 5847 5847 5847 5847 5846
5857 5856 5855 5853 5850 5849 5847 5846 5845 5844 5844 5843 5842 5841 5840 5838 5836 5834 5833 5832 5831 5829 5828 5826 5825 5824 5824 5823 5822 5823 5825 5828 5831 5834 5836 5837 5838 5838 5838 5838 5838 5838 5838
5847 5846 5845 5843 5841 5839 5837 5836 5834 5833 5832 5831 5830 5829 5828 5826 5825 5823 5822 5821 5819 5818 5817 5816 5814 5813 5813 5812 5811 5811 5813 5816 5820 5824 5825 5827 5829 5829 5829 5830 5830 5829 5828
5838 5836 5835 5834 5832 5830 5828 5825 5823 5822 5821 5820 5819 5817 5817 5816 5814 5812 5811 5809 5808 5806 5805 5804 5803 5801 5801 5800 5800 5800 5802 5805 5809 5813 5815 5816 5818 5820 5821 5821 5821 5820 5820
5829 5827 5826 5825 5823 5821 5819 5817 5814 5813 5811 5810 5808 5806 5805 5803 5802 5800 5799 5797 5796 5794 5793 5793 5792 5791 5790 5789 5789 5790 5792 5795 5799 5803 5806 5807 5808 5810 5811 5812 5811 5811 5812
5821 5820 5818 5817 5815 5813 5811 5808 5806 5804 5802 5799 5797 5795 5793 5791 5790 5788 5786 5785 5783 5782 5782 5781 5781 5780 5779 5779 5780 5782 5784 5787 5789 5792 5795 5797 5799 5800 5801 5802 5803 5803 5804
Wind_Speed
9 9 8 6 3 2 1 2 4 6 8 10 12 13 13 12 10 10 11 11 11 11 11 10 11 11 12 12 11 11 11 11 11 10 10 10 9 8 7 6 4 4 4
8 7 6 4 2 1 2 3 5 6 8 9 11 12 13 13 11 9 10 11 11 12 12 11 10 10 10 11 11 11 10 9 9 9 9 10 10 8 7 5 5 3 3
6 5 3 2 2 3 5 5 6 6 7 9 11 12 12 12 11 9 9 11 12 13 13 12 12 11 11 11 11 11 10 9 8 7 8 8 9 8 7 5 4 4 4
7 5 3 2 2 4 5 5 5 6 8 10 11 12 12 11 9 8 8 10 12 12 12 12 12 12 12 12 11 11 11 10 9 7 6 7 7 6 6 5 5 5 4
7 6 5 4 4 5 6 6 5 5 7 10 12 12 12 11 8 7 8 10 11 11 11 11 11 12 12 13 12 12 12 11 10 9 6 4 5 5 5 5 5 5 4
7 7 7 6 6 8 8 7 6 6 8 10 12 13 13 12 10 8 9 10 11 10 10 11 11 11 12 13 13 13 12 11 11 11 9 6 5 6 5 5 5 6 5
9 9 9 10 10 11 11 11 10 9 10 12 13 14 13 13 11 10 10 11 11 10 10 11 11 11 11 12 13 14 13 11 11 11 11 8 7 8 6 6 6 7 8
12 13 13 13 13 14 14 14 13 13 13 13 14 14 14 14 14 13 12 11 11 10 10 11 11 10 10 11 12 14 14 13 11 12 12 10 9 10 9 8 7 8 8
12 13 14 15 16 16 16 16 15 14 13 14 14 15 16 16 16 16 15 14 13 13 13 13 12 11 10 10 11 12 14 14 12 11 12 12 12 11 11 11 10 9 10
13 12 14 14 16 17 17 17 16 15 14 14 15 16 17 18 18 19 19 18 18 18 17 16 16 14 11 10 10 11 12 13 13 12 11 12 14 14 14 13 12 11 11
14 13 14 14 16 17 17 17 17 17 17 16 17 18 20 21 22 22 23 23 23 23 22 21 20 19 15 13 11 11 11 12 12 11 11 12 14 15 16 16 15 14 13
14 14 14 14 17 18 18 19 20 20 20 20 20 22 23 24 25 25 25 25 24 24 23 23 23 23 21 17 14 13 12 12 12 11 11 12 13 14 16 17 17 17 16
17 17 18 18 19 21 22 23 24 24 24 25 25 26 26 27 27 27 27 27 27 27 27 25 23 25 25 22 19 16 14 13 13 12 12 13 13 13 15 16 18 19 19
22 23 23 25 25 26 27 26 27 28 28 28 29 30 31 31 31 32 32 32 32 32 33 31 27 26 27 27 24 21 18 17 15 14 14 15 15 15 15 15 16 18 20
27 30 30 30 31 31 32 31 30 31 31 32 32 32 34 35 35 35 35 35 35 34 34 35 33 29 28 29 28 25 23 20 19 18 16 16 17 18 17 17 17 17 19
33 34 35 35 35 36 37 37 36 36 36 36 36 35 35 37 39 39 40 40 40 39 36 35 36 34 31 30 29 29 27 25 22 22 21 19 20 20 21 21 21 20 21
39 39 40 40 41 41 42 42 42 41 41 40 40 40 38 38 40 42 43 44 45 45 43 40 39 38 36 34 33 32 31 30 28 26 26 24 23 23 25 25 26 25 24
44 44 44 45 46 46 46 46 45 44 44 44 44 43 42 41 43 45 46 47 48 49 50 47 45 43 41 39 38 36 35 34 33 31 30 29 27 26 27 29 30 29 28
48 48 48 48 49 49 48 47 46 45 44 45 45 45 45 44 44 47 49 50 52 53 53 53 51 48 46 44 43 41 40 38 37 35 33 32 31 29 29 29 31 31 30
47 47 48 47 47 46 44 43 42 42 42 43 44 45 46 45 45 47 49 51 54 55 55 55 54 52 50 49 49 46 43 41 39 37 36 35 33 32 30 29 30 31 30
41 41 41 42 42 41 41 41 42 42 43 44 44 45 46 47 48 49 50 51 52 53 52 53 52 51 52 53 52 49 46 43 41 39 37 36 35 34 31 30 30 30 30
39 39 39 41 42 42 43 44 44 45 45 45 47 47 48 49 50 50 51 51 51 50 50 49 50 51 51 53 53 50 47 43 40 38 37 37 36 35 34 33 33 32 31
42 42 43 44 45 46 47 47 48 48 48 48 48 49 49 50 51 51 51 51 51 50 48 47 48 48 49 49 50 49 46 44 42 39 38 38 37 36 36 37 37 35 33
41 42 43 44 44 46 47 48 48 48 48 48 49 49 49 49 50 51 52 53 52 51 49 47 47 46 45 44 44 44 44 44 43 40 39 39 39 37 38 39 39 36 32
38 38 39 39 39 40 42 43 44 45 45 45 46 46 47 48 49 49 50 52 53 52 50 48 46 45 43 41 39 39 41 43 44 43 41 40 39 39 38 38 37 34 31
35 35 35 35 35 36 38 40 41 42 43 44 44 45 47 48 49 48 49 51 52 52 50 48 46 44 41 38 36 37 39 42 44 45 45 41 39 39 37 34 33 32 30
Wind_Direction
153 161 169 172 161 134 68 8 352 353 357 359 4 9 12 13 16 24 26 23 19 15 13 12 11 9 9 9 11 13 16 18 19 21 24 25 26 26 25 23 26 42 41
154 161 175 186 217 302 327 335 332 335 344 351 356 2 4 4 4 12 21 19 14 9 6 3 1 358 356 354 353 356 1 7 10 13 14 15 16 18 21 19 11 356 335
152 160 182 206 287 321 328 333 336 342 350 353 354 357 360 3 5 8 19 21 14 7 4 3 1 356 350 343 338 339 343 347 351 359 3 6 10 16 21 22 11 346 322
171 180 206 249 300 316 325 333 343 360 7 2 357 353 352 357 7 16 20 17 10 5 2 3 4 2 356 346 334 327 326 330 333 341 351 357 357 8 17 23 22 16 354
202 210 226 243 267 285 300 315 332 356 1 358 354 348 342 342 350 2 5 4 4 4 3 0 360 360 357 352 343 330 320 316 319 324 329 341 333 340 351 4 8 10 9
239 244 250 255 263 273 282 295 306 319 329 335 338 337 332 327 328 334 342 348 355 0 3 1 356 352 349 349 348 340 326 312 306 309 314 320 315 316 320 324 330 334 336
264 264 265 268 271 276 280 285 291 299 308 317 324 325 322 315 311 316 324 331 339 346 352 355 354 349 343 343 344 342 333 317 303 296 297 303 297 295 300 303 308 317 323
266 269 272 274 274 278 282 284 288 297 305 310 313 314 313 307 302 304 309 314 320 325 330 336 340 341 339 337 339 342 340 327 308 293 288 291 289 287 286 287 292 303 316
264 267 271 275 276 278 282 284 288 295 301 304 306 305 303 300 296 296 300 303 306 307 308 314 318 321 324 325 329 336 341 338 322 299 288 286 284 285 284 283 282 287 299
273 268 273 275 277 277 279 282 285 291 297 302 303 301 298 294 292 292 293 294 296 297 296 296 299 299 301 305 312 321 331 338 334 319 300 285 280 281 282 285 283 279 284
281 278 277 280 282 283 285 287 289 294 298 301 302 302 300 297 294 292 291 290 290 291 291 288 286 286 284 285 292 301 312 323 330 329 316 295 285 281 280 283 285 282 280
285 284 284 286 290 292 295 297 298 300 301 302 303 306 306 303 299 295 292 291 291 292 292 290 283 277 276 275 278 285 295 305 316 324 321 308 297 287 282 281 281 282 282
287 286 288 290 292 294 297 300 302 303 304 304 305 309 309 306 302 298 296 296 295 295 294 293 287 276 270 269 268 271 280 289 300 310 311 310 308 300 293 286 281 279 280
286 286 286 288 288 290 293 295 297 300 301 300 301 305 307 307 306 302 298 298 297 297 296 294 290 281 272 268 266 263 266 274 282 291 299 303 305 304 302 297 289 283 280
282 284 284 285 286 288 289 291 293 294 295 294 295 298 301 304 305 305 305 303 302 300 296 294 291 285 279 273 269 265 262 265 271 278 285 293 299 300 298 297 295 290 283
280 281 283 284 285 287 289 290 292 293 293 293 293 293 294 297 298 300 301 302 302 303 303 298 294 289 284 280 275 270 263 262 265 272 278 284 289 293 293 291 290 289 286
280 282 284 285 286 288 289 290 291 293 293 293 294 295 292 290 291 293 295 297 298 298 298 300 297 292 286 281 278 274 268 264 266 268 272 277 282 286 289 289 287 286 285
283 283 285 286 286 287 287 288 289 291 292 292 293 293 292 290 289 289 290 291 292 292 292 293 294 293 288 282 277 273 270 266 265 266 269 274 278 282 286 288 287 285 284
285 286 286 285 285 285 285 286 287 288 288 288 288 288 288 288 287 287 286 286 286 287 288 288 288 288 288 284 279 275 270 265 262 263 266 270 274 278 282 286 287 285 283
282 283 284 284 284 284 284 284 283 283 283 283 284 285 285 284 284 283 283 284 284 285 285 285 285 285 285 285 280 277 272 265 261 261 263 268 273 276 281 285 287 284 281
284 284 284 284 285 285 284 283 282 282 281 282 282 283 283 283 282 281 281 282 282 284 284 283 282 280 282 283 283 278 272 266 261 260 262 266 272 276 282 286 288 284 280
289 288 287 286 287 286 285 284 284 283 282 282 282 282 281 280 280 280 280 281 281 281 282 282 280 278 280 281 280 278 272 264 262 262 261 264 269 275 282 288 290 286 280
288 287 286 285 285 285 285 285 285 284 284 283 282 281 281 280 280 280 279 279 279 279 279 280 280 278 279 279 277 273 270 263 260 261 261 263 266 272 279 287 289 286 282
286 285 284 283 283 284 284 284 283 283 283 283 282 282 281 280 280 280 280 279 279 279 279 279 279 278 277 276 273 268 263 258 256 258 262 265 268 271 277 284 286 284 282
288 287 286 285 284 284 283 283 283 283 283 283 282 282 281 281 281 281 280 280 278 277 277 278 277 277 276 273 269 263 257 254 254 258 260 265 269 273 277 281 281 280 279
287 287 286 286 285 284 283 283 282 282 282 281 281 281 282 282 281 281 280 279 278 276 275 275 274 274 273 268 263 256 251 251 256 259 260 261 266 273 277 277 275 274 275